STARLINK-2613, 48353

Orbit data source: Space-Track

STARLINK-2613, 48353 is a payload satellite owned by SpaceX/Seattle (US) in LEO that was launched on Tue, 04 May 2021 UTC via an FALCON 9 launch vehicle from the Air Force Eastern Test Range (AFETR). Payload-class satellites include a variety of spacecraft equipped with specific instruments for various scientific and technological missions. These include communications satellites like Starlink; space stations such as the ISS; scientific satellites like the Hubble; Earth observation satellites from companies like Planet Labs, Umbra, and HawkEye 360; GPS; miniature CubeSats for education and research; and military/defense satellites.

Loading next visibility...
Identifier
48353, 2021-038A
Orbit
LEO
Country
Flag of USUS
Related business
Manufacturer
SpaceX/Seattle
Mission
Operational Commercial Communications
Bus & Motor
STARLINK, Unknown motor
Mass
260 kg wet, ~248 kg dry
Launch date (UTC)
2021-05-04 (5 years ago)
Launch vehicle
FALCON 9
Launch site
Air Force Eastern Test Range (AFETR)
Object type
Payload
Rocket body
Debris
Shape & HBR
Box + 1 Pan, 10.1 m
Radar Cross Section
13.562 m², Large (>1 m²)

Expand to show TLE details & history
Last TLE update: 2 days ago

TLE from 2 days ago
0 STARLINK-2613
1 48353U 21038A   26171.44848723  .00000289  00000-0  21069-4 0  9995
2 48353  53.1604 240.0808 0001260  85.4683 274.6462 15.31705089282821
Epoch: 2026-06-20T10:45Z
TLE epoch observation values (Epoch: 2026-06-20T10:45:49.296Z)
Latitude
-0.00006°
Longitude
169.96239°
Altitude
471.555 km
Speed
7.632 km/s
True Right ascension
16h 00m 19s
True Declination
0° 00' 00"
Sunlit
Object was in full shadow at epoch
Visualization orbit readout
Latitude
Unknown
Longitude
Unknown
Altitude
Unknown
Speed
Unknown
Apparent Right ascension
Unknown
Apparent Declination
Unknown
Sunlit
N/A
Visualization observer readout
Local Sidereal Time
21:38:58
Azimuth
Unknown
Elevation
Unknown
Doppler factor
Unknown
Orbital elements
Apogee altitude
471.844 km
Perigee altitude
470.118 km
Semi-major axis
6,849.118 km
Eccentricity
0.00013
Inclination
53.1604°
RAAN
240.0808°
Arg. of periapsis
85.4683°
True anomaly
274.63181°
Mean anomaly
274.6462°
Eccentric anomaly
274.639°
Mean motion
3.82905 °/min
Orbital period
94.02 mins
BSTAR
0.000021069
Loading maneuver chart data...
Computing Atmospheric mass density...

Documentation

Showing up to 5 results
|